This demonstration page uses our WeatherBlox Daily Observations layout. Learn more.

Left ArrowRight Arrow

Hourly Observations for September 29, 2015

Temp ( °F °C ) Dew Point ( °F °C ) Humidity (%) Winds ( mph kmh ) Pressure ( in mb ) Visibility ( mi km ) Precip ( " mm )
12:53 am 00:53 Mostly Cloudy 69 20.6 68 20 96 96 Calm 29.98 1015 10 16.0934 0 0.0254
1:53 am 01:53 Mostly Cloudy with Light Rain 69 20.6 68 20 96 96 Calm 29.97 1015 10 16.0934 0 0.0254
2:53 am 02:53 Mostly Cloudy with Light Rain 69 20.6 67 19.4 93 93 Calm 29.96 1014 10 16.0934 0.01 0.254
3:53 am 03:53 Mostly Clear 68 20 67 19.4 96 96 Calm 29.93 1014 8 12.87472 0 0.0254
4:53 am 04:53 Clear 69 20.6 68 20 96 96 Calm 29.92 1013 10 16.0934 0 0
5:53 am 05:53 Mostly Clear 68 20 67 19.4 96 96 Calm 29.92 1013 10 16.0934 0 0.0254
6:53 am 06:53 Mostly Clear 68 20 67 19.4 96 96 Calm 29.93 1014 10 16.0934 0 0
7:53 am 07:53 Cloudy 68 20 67 19.4 96 96 Calm 29.94 1014 9 14.48406 0 0
8:53 am 08:53 Cloudy with Light Rain 69 20.6 68 20 96 96 Calm 29.94 1014 6 9.65604 0.03 0.762
9:53 am 09:53 Cloudy with Light Rain 70 21.1 69 20.6 97 97 Calm 29.94 1014 5 8.0467 0.02 0.508
10:53 am 10:53 Cloudy with Light Rain 71 21.7 69 20.6 94 94 ENE 3 6 29.94 1014 7 11.26538 0.03 0.762
11:28 am 11:28 Cloudy with Rain 71 21.7 69 20.6 94 94 Calm 29.94 1014 6 9.65604 0.03 0.762
11:53 am 11:53 Cloudy with Rain 72 22.2 70 21.1 94 94 Calm 29.93 1014 5 8.0467 0.06 1.524
12:06 pm 12:06 Cloudy with Rain 72 22.2 70 21.1 94 94 Calm 29.94 1014 4 6.43736 0.01 0.254
12:18 pm 12:18 Cloudy with Light Rain 72 22.2 70 21.1 94 94 N 3 6 29.94 1014 5 8.0467 0.03 0.762
12:33 pm 12:33 Cloudy with Rain 72 22.2 70 21.1 94 94 N 6 9 29.94 1014 4 6.43736 0.04 1.016
12:43 pm 12:43 Cloudy with Rain 71 21.7 70 21.1 96 96 N 6 9 29.94 1014 3 4.82802 0.06 1.524
12:53 pm 12:53 Cloudy with Light Rain 72 22.2 70 21.1 94 94 N 7 11 29.92 1013 4 6.43736 0.06 1.524
1:09 pm 13:09 Cloudy with Light Rain 72 22.2 70 21.1 94 94 NNE 3 6 29.94 1014 4 6.43736 0.01 0.254
1:23 pm 13:23 Cloudy with Light Rain 72 22.2 70 21.1 94 94 NNW 6 9 29.94 1014 4 6.43736 0.02 0.508
1:28 pm 13:28 Cloudy with Rain 72 22.2 70 21.1 94 94 N 6 9 29.94 1014 4 6.43736 0.03 0.762
1:37 pm 13:37 Cloudy with Light Rain 72 22.2 70 21.1 94 94 NNE 7 11 29.94 1014 5 8.0467 0.04 1.016
1:53 pm 13:53 Cloudy with Light Rain 72 22.2 69 20.6 91 91 NNW 6 9 29.91 1013 6 9.65604 0.04 1.016
2:43 pm 14:43 Cloudy with Light Rain 71 21.7 69 20.6 94 94 NNE 5 7 29.91 1013 6 9.65604 0.03 0.762
2:53 pm 14:53 Cloudy with Light Rain 71 21.7 68 20 90 90 NE 7 11 29.89 1012 6 9.65604 0.03 0.762
3:21 pm 15:21 Cloudy with Rain 71 21.7 68 20 90 90 NNE 8 13 29.91 1013 5 8.0467 0.02 0.508
3:29 pm 15:29 Cloudy with Rain 71 21.7 68 20 90 90 N 3 6 29.88 1012 4 6.43736 0.03 0.762
3:53 pm 15:53 Cloudy with Light Rain 71 21.7 68 20 90 90 N 5 7 29.88 1012 6 9.65604 0.04 1.016
4:05 pm 16:05 Cloudy with Light Rain 70 21.1 68 20 93 93 N 3 6 29.88 1012 6 9.65604 0.01 0.254
4:43 pm 16:43 Cloudy with Light Rain 70 21.1 68 20 93 93 NNE 6 9 29.88 1012 5 8.0467 0.02 0.508
4:53 pm 16:53 Cloudy with Light Rain 70 21.1 68 20 93 93 N 3 6 29.87 1012 5 8.0467 0.03 0.762
5:53 pm 17:53 Cloudy with Light Rain 70 21.1 68 20 93 93 N 6 9 29.86 1011 6 9.65604 0.05 1.27
6:53 pm 18:53 Cloudy with Light Rain 69 20.6 68 20 96 96 NW 5 7 29.88 1012 6 9.65604 0.02 0.508
7:53 pm 19:53 Partly Cloudy 68 20 66 18.9 93 93 N 5 7 29.87 1012 10 16.0934 0 0.0254
8:53 pm 20:53 Cloudy 68 20 65 18.3 90 90 N 3 6 29.88 1012 10 16.0934 0.01 0.254
9:53 pm 21:53 Cloudy with Light Rain 67 19.4 65 18.3 93 93 N 5 7 29.9 1013 8 12.87472 0.01 0.254
10:53 pm 22:53 Mostly Cloudy 67 19.4 65 18.3 93 93 WNW 6 9 29.9 1013 7 11.26538 0.01 0.254
11:26 pm 23:26 Mostly Cloudy 67 19.4 65 18.3 93 93 N 3 6 29.91 1013 8 12.87472 0 0
11:34 pm 23:34 Mostly Cloudy 67 19.4 65 18.3 93 93 N 6 9 29.91 1013 8 12.87472 0 0
11:45 pm 23:45 Cloudy 67 19.4 65 18.3 93 93 N 6 9 29.91 1013 7 11.26538 0 0
11:53 pm 23:53 Cloudy 67 19.4 65 18.3 93 93 N 7 11 29.91 1013 7 11.26538 0 0

Powered by AerisWeather